Boulder Muni, Boulder, CO, CO

6:40 PM MST on November 12, 2019 (GMT -0700)
Boulder Muni, Boulder, CO

Weather History for KBDU - October, 2019

Change the Weather History Date:

Wednesday, October 16, 2019

  Actual Average Record
Temperature  
Mean Temperature 57 °F -  
Max Temperature 79 °F - 82 °F (2016)
Min Temperature 34 °F - 28 °F (2013)
Degree Days  
Heating Degree Days 8    
Month to date heating degree days 224  
Cooling Degree Days 0    
Month to date cooling degree days 0  
Growing Degree Days 6 (Base 50)    
Moisture  
Dew Point 25 °F    
Average Humidity 44    
Maximum Humidity 76    
Minimum Humidity 12    
Precipitation  
Precipitation 0.00 in - 0.00 in (2019)
Snow  
Snow 0.00 in - - ()
Snow Depth 0.00 in    
Sea Level Pressure  
Sea Level Pressure 30.11 in    
Wind  
Wind Speed 2 mph (SW)    
Max Wind Speed 8 mph    
Max Gust Speed -    
Visibility 10 miles    
Events      
T = Trace of Precipitation, MM = Missing Value Source: NWS Daily Summary

Daily Weather History Graph

Daily Weather History Graph

Search for Another Location

Airport or City:

Astronomy

Oct. 16, 2019 Rise Set
Actual Time 7:12 AM MDT 6:20 PM MDT
Civil Twilight 6:44 AM MDT 6:47 PM MDT
Nautical Twilight 6:13 AM MDT 7:18 PM MDT
Astronomical Twilight 5:42 AM MDT 7:50 PM MDT
Moon 8:14 PM MDT (10/16) 9:45 AM MDT (10/16)
Length of Visible Light 12h 02m
Length of Day
11h 07m
Waning Gibbous, 92% of the Moon is Illuminated
Oct 16
Waning Gibbous
Oct 21
Last Quarter
Oct 27
New
Nov 4
First Quarter
Nov 12
Full

Hourly Weather History & Observations

Time (MDT) Temp. Windchill Dew Point Humidity Pressure Visibility Wind Dir Wind Speed Gust Speed Precip Events Conditions
12:12 AM 41.0 °F - 32.0 °F 70% 30.26 in 10.0 mi Calm Calm - N/A   Clear
12:30 AM 41.0 °F - 30.2 °F 65% 30.26 in 10.0 mi Calm Calm - N/A   Clear
12:48 AM 37.4 °F - 28.4 °F 70% 30.25 in 10.0 mi Calm Calm - N/A   Clear
1:12 AM 41.0 °F - 30.2 °F 65% 30.24 in 10.0 mi Calm Calm - N/A   Clear
1:30 AM 37.4 °F 33.8 °F 30.2 °F 75% 30.24 in 10.0 mi South 4.6 mph - N/A   Clear
1:48 AM 37.4 °F 33.8 °F 28.4 °F 70% 30.23 in 10.0 mi SSW 4.6 mph - N/A   Clear
2:12 AM 39.2 °F - 30.2 °F 70% 30.22 in 10.0 mi Calm Calm - N/A   Clear
2:29 AM 37.4 °F - 30.2 °F 75% 30.21 in 10.0 mi Calm Calm - N/A   Clear
2:53 AM 37.4 °F 34.9 °F 28.4 °F 70% 30.20 in 10.0 mi West 3.5 mph - N/A   Clear
3:12 AM 37.4 °F - 28.4 °F 70% 30.20 in 10.0 mi Calm Calm - N/A   Clear
3:30 AM 37.4 °F - 30.2 °F 75% 30.18 in 10.0 mi Calm Calm - N/A   Clear
3:54 AM 37.4 °F 34.9 °F 28.4 °F 70% 30.18 in 10.0 mi SSW 3.5 mph - N/A   Clear
4:30 AM 37.4 °F 34.9 °F 28.4 °F 70% 30.17 in 10.0 mi SSW 3.5 mph - N/A   Clear
4:54 AM 37.4 °F 34.9 °F 28.4 °F 70% 30.16 in 10.0 mi WSW 3.5 mph - N/A   Clear
5:12 AM 39.2 °F 37.0 °F 28.4 °F 65% 30.15 in 10.0 mi SSW 3.5 mph - N/A   Clear
5:30 AM 35.6 °F - 28.4 °F 75% 30.15 in 10.0 mi Calm Calm - N/A   Clear
5:54 AM 37.4 °F 34.9 °F 28.4 °F 70% 30.15 in 10.0 mi West 3.5 mph - N/A   Clear
6:12 AM 33.8 °F - 28.4 °F 81% 30.16 in 10.0 mi Calm Calm - N/A   Clear
6:30 AM 37.4 °F - 28.4 °F 70% 30.16 in 10.0 mi Calm Calm - N/A   Clear
6:54 AM 37.4 °F - 30.2 °F 75% 30.16 in 10.0 mi Calm Calm - N/A   Clear
7:12 AM 35.6 °F - 30.2 °F 81% 30.16 in 10.0 mi Calm Calm - N/A   Clear
7:30 AM 37.4 °F - 28.4 °F 70% 30.16 in 10.0 mi Calm Calm - N/A   Clear
7:54 AM 37.4 °F - 30.2 °F 75% 30.16 in 10.0 mi Calm Calm - N/A   Clear
8:12 AM 41.0 °F 39.0 °F 30.2 °F 65% 30.16 in 10.0 mi SSW 3.5 mph - N/A   Clear
8:30 AM 41.0 °F - 30.2 °F 65% 30.16 in 10.0 mi Calm Calm - N/A   Clear
8:54 AM 44.6 °F - 30.2 °F 57% 30.17 in 10.0 mi Calm Calm - N/A   Clear
9:12 AM 46.4 °F - 28.4 °F 50% 30.17 in 10.0 mi Calm Calm - N/A   Clear
9:30 AM 48.2 °F - 30.2 °F 50% 30.17 in 10.0 mi NE 3.5 mph - N/A   Clear
9:48 AM 51.8 °F - 30.2 °F 44% 30.17 in 10.0 mi NE 3.5 mph - N/A   Clear
10:12 AM 53.6 °F - 28.4 °F 38% 30.17 in 10.0 mi NE 3.5 mph - N/A   Clear
10:30 AM 55.4 °F - 30.2 °F 38% 30.17 in 10.0 mi Calm Calm - N/A   Clear
10:48 AM 57.2 °F - 30.2 °F 36% 30.17 in 10.0 mi Calm Calm - N/A   Clear
11:12 AM 60.8 °F - 30.2 °F 31% 30.15 in 10.0 mi ESE 3.5 mph - N/A   Clear
11:30 AM 62.6 °F - 28.4 °F 27% 30.14 in 10.0 mi Calm Calm - N/A   Clear
11:48 AM 66.2 °F - 30.2 °F 26% 30.14 in 10.0 mi Calm Calm - N/A   Clear
12:12 PM 69.8 °F - 28.4 °F 21% 30.13 in 10.0 mi East 4.6 mph - N/A   Clear
12:30 PM 71.6 °F - 32.0 °F 23% 30.13 in 10.0 mi ESE 3.5 mph - N/A   Clear
12:48 PM 71.6 °F - 28.4 °F 20% 30.12 in 10.0 mi Calm Calm - N/A   Clear
1:12 PM 73.4 °F - 23.0 °F 15% 30.11 in 10.0 mi Calm Calm - N/A   Clear
1:30 PM 73.4 °F - 23.0 °F 15% 30.10 in 10.0 mi NNW 5.8 mph - N/A   Clear
1:48 PM 77.0 °F - 21.2 °F 12% 30.09 in 10.0 mi WNW 4.6 mph - N/A   Clear
2:12 PM 77.0 °F - 19.4 °F 12% 30.08 in 10.0 mi West 4.6 mph - N/A   Clear
2:30 PM 77.0 °F - 19.4 °F 12% 30.07 in 10.0 mi Calm Calm - N/A   Clear
2:48 PM 78.8 °F - 21.2 °F 12% 30.07 in 10.0 mi SW 5.8 mph - N/A   Clear
3:12 PM 78.8 °F - 21.2 °F 12% 30.06 in 10.0 mi Calm Calm - N/A   Clear
3:30 PM 78.8 °F - 21.2 °F 12% 30.05 in 10.0 mi SSW 6.9 mph - N/A   Clear
3:48 PM 78.8 °F - 21.2 °F 12% 30.05 in 10.0 mi SSW 5.8 mph - N/A   Clear
4:12 PM 78.8 °F - 21.2 °F 12% 30.05 in 10.0 mi SSE 3.5 mph - N/A   Clear
4:30 PM 78.8 °F - 21.2 °F 12% 30.04 in 10.0 mi Calm Calm - N/A   Clear
4:48 PM 75.2 °F - 21.2 °F 13% 30.04 in 10.0 mi WSW 3.5 mph - N/A   Clear
5:12 PM 77.0 °F - 19.4 °F 12% 30.04 in 10.0 mi SW 4.6 mph - N/A   Clear
5:30 PM 77.0 °F - 19.4 °F 12% 30.03 in 10.0 mi SSW 3.5 mph - N/A   Clear
5:54 PM 73.4 °F - 21.2 °F 14% 30.03 in 10.0 mi Calm Calm - N/A   Clear
6:12 PM 71.6 °F - 21.2 °F 15% 30.03 in 10.0 mi Calm Calm - N/A   Clear
6:30 PM 68.0 °F - 23.0 °F 18% 30.03 in 10.0 mi Calm Calm - N/A   Clear
6:49 PM 64.4 °F - 23.0 °F 21% 30.03 in 10.0 mi West 4.6 mph - N/A   Clear
7:12 PM 62.6 °F - 23.0 °F 22% 30.03 in 10.0 mi West 6.9 mph - N/A   Clear
7:30 PM 64.4 °F - 19.4 °F 18% 30.03 in 10.0 mi WSW 5.8 mph - N/A   Clear
7:54 PM 64.4 °F - 17.6 °F 16% 30.03 in 10.0 mi SW 8.1 mph - N/A   Clear
8:12 PM 64.4 °F - 17.6 °F 16% 30.03 in 10.0 mi SSW 4.6 mph - N/A   Clear
8:30 PM 62.6 °F - 17.6 °F 18% 30.03 in 10.0 mi SSW 5.8 mph - N/A   Clear
8:54 PM 62.6 °F - 17.6 °F 18% 30.03 in 10.0 mi WSW 4.6 mph - N/A   Clear
9:12 PM 62.6 °F - 17.6 °F 18% 30.03 in 10.0 mi SSW 6.9 mph - N/A   Clear
9:30 PM 55.4 °F - 21.2 °F 26% 30.03 in 10.0 mi West 3.5 mph - N/A   Clear
9:54 PM 55.4 °F - 21.2 °F 26% 30.03 in 10.0 mi West 5.8 mph - N/A   Clear
10:12 PM 53.6 °F - 24.8 °F 33% 30.03 in 10.0 mi West 3.5 mph - N/A   Clear
10:30 PM 53.6 °F - 23.0 °F 30% 30.03 in 10.0 mi West 6.9 mph - N/A   Clear
10:54 PM 53.6 °F - 21.2 °F 28% 30.02 in 10.0 mi WNW 3.5 mph - N/A   Clear
11:12 PM 51.8 °F - 21.2 °F 30% 30.01 in 10.0 mi WSW 3.5 mph - N/A   Clear
11:30 PM 51.8 °F - 23.0 °F 33% 30.01 in 10.0 mi SE 3.5 mph - N/A   Clear
11:53 PM 51.8 °F - 21.2 °F 30% 30.00 in 10.0 mi South 4.6 mph - N/A   Clear